Temp
83 83 83 83 83 84 83 83 84 84 83 85 85 85 85 85 85 85 85 85 85 85 85 84 84 84 85 84 84 84 84 84 85 86 85 85 85 85 85 85 85 84
82 83 83 83 83 83 84 84 84 84 83 84 85 86 85 85 86 86 85 85 85 85 85 85 84 84 84 85 84 84 84 84 84 86 84 84 84 85 86 85 86 85
83 83 83 83 84 84 86 85 84 84 85 85 85 85 86 86 86 85 85 85 85 86 85 85 85 84 84 85 84 84 85 83 83 87 84 84 85 85 85 88 87 86
83 83 84 85 85 85 85 84 84 84 85 85 85 86 86 87 86 85 85 84 85 85 86 85 85 86 85 85 84 84 85 84 85 85 84 84 84 85 85 85 86 86
83 83 84 85 85 85 85 84 85 85 85 85 86 85 84 84 84 86 85 85 84 85 85 85 85 85 84 84 84 84 84 85 85 84 83 83 84 84 85 85 84 84
83 83 83 84 85 84 84 85 85 85 85 86 85 86 86 85 85 85 85 85 86 86 86 87 86 86 86 85 84 84 85 86 86 84 83 83 84 86 87 85 84 83
84 84 84 85 85 85 84 84 85 85 86 86 86 85 86 86 85 85 85 85 86 85 86 85 84 85 85 85 84 83 83 83 84 84 83 83 83 84 86 85 84 83
85 85 85 85 85 85 84 85 85 85 85 85 85 85 86 86 85 86 85 85 86 85 85 85 84 84 86 85 84 83 84 85 84 83 82 83 83 83 84 85 84 83
85 85 85 85 85 86 87 87 86 85 86 85 86 87 86 86 86 87 85 84 85 84 84 84 84 84 85 85 84 84 83 85 85 84 83 83 83 83 84 84 84 83
84 85 86 86 86 87 87 88 88 87 86 86 86 88 86 85 86 86 85 84 84 83 84 84 84 84 85 85 84 84 84 83 84 84 84 84 84 85 85 84 84 83
85 86 86 86 87 88 88 88 89 89 87 87 87 87 87 86 85 85 84 83 84 83 83 83 84 84 84 85 85 85 85 85 84 84 84 84 84 84 84 84 84 84
85 86 86 86 87 88 88 89 89 89 88 87 88 87 87 87 85 85 84 83 84 84 84 84 84 84 84 84 86 87 85 85 85 85 85 85 85 85 85 85 85 85
86 86 85 87 86 87 88 88 89 89 89 88 88 87 87 87 87 84 84 84 84 84 85 84 84 84 84 84 84 85 85 85 85 85 85 85 85 86 87 87 86 86
86 85 85 85 86 85 86 87 87 88 87 87 87 86 87 87 87 85 85 85 85 85 85 85 84 84 84 84 84 84 85 85 85 85 85 85 85 86 87 88 87 87
85 85 85 85 85 84 84 85 85 85 85 85 85 85 86 87 88 87 86 85 86 85 85 85 85 85 85 85 84 84 85 85 85 85 85 85 85 86 86 86 87 88
84 84 83 83 83 82 83 84 84 84 84 84 84 85 85 85 86 86 87 86 85 85 85 85 85 86 79 71 74 84 85 85 85 84 84 84 84 84 86 86 87 88
83 83 83 82 82 82 82 83 83 83 83 83 83 84 84 83 84 85 86 87 86 86 86 85 86 85 71 66 67 69 81 85 84 84 84 84 84 83 83 85 86 87
83 83 82 82 82 82 82 82 83 83 82 82 83 83 83 84 84 84 84 86 86 87 87 86 87 75 67 65 66 65 69 83 85 85 85 85 84 84 85 85 85 87
83 82 82 82 82 82 82 82 82 82 82 83 83 83 84 82 82 83 83 84 85 84 86 87 88 73 65 64 64 64 64 73 85 86 85 85 85 85 85 84 84 85
82 82 82 82 82 82 82 81 81 81 83 84 84 83 82 83 83 83 83 83 84 84 84 86 87 74 64 63 63 62 63 67 84 85 85 85 85 85 85 85 84 84
82 82 82 82 82 82 81 81 81 81 82 83 85 84 83 82 83 83 83 83 85 85 85 86 88 70 63 62 61 60 61 65 82 84 84 84 85 85 85 85 85 85
83 82 82 82 82 82 81 81 81 81 81 82 83 85 85 85 84 85 84 84 84 85 85 84 88 69 62 61 60 60 60 74 80 81 82 84 84 85 85 85 85 85
84 83 82 82 82 81 81 82 81 81 82 83 83 84 85 85 85 86 85 85 84 84 83 84 87 74 62 60 59 58 63 78 80 81 81 82 83 84 85 85 85 85
84 84 82 82 82 81 82 82 83 84 83 83 83 84 85 86 86 85 86 86 86 85 86 84 86 76 60 59 58 57 65 79 80 80 81 81 82 84 84 84 85 79
85 84 84 83 82 83 83 83 83 83 84 85 85 85 85 86 86 86 86 86 88 87 78 83 87 79 61 60 57 57 66 80 81 81 80 81 82 82 83 84 84 81
85 84 84 84 83 83 84 84 85 85 85 85 85 86 86 86 86 86 85 86 88 87 87 86 86 86 76 58 58 56 59 78 81 80 80 80 82 82 83 83 84 84
MSLP
1015.42 1015.66 1016.06 1016.34 1016.54 1016.66 1016.94 1017.30 1017.38 1017.70 1017.90 1017.94 1018.18 1018.30 1018.42 1018.46 1018.50 1018.74 1018.90 1019.02 1019.26 1019.46 1019.66 1019.82 1019.98 1020.18 1020.30 1020.42 1020.62 1020.82 1020.98 1021.10 1021.14 1021.14 1021.34 1021.46 1021.62 1021.70 1021.90 1022.02 1022.18 1022.30
1015.10 1015.34 1015.62 1015.90 1016.26 1016.38 1016.54 1016.70 1017.06 1017.26 1017.54 1017.62 1017.66 1017.82 1017.98 1018.18 1018.30 1018.46 1018.70 1018.90 1019.02 1019.18 1019.30 1019.54 1019.74 1019.90 1020.10 1020.22 1020.42 1020.74 1020.90 1020.98 1021.22 1020.86 1021.30 1021.46 1021.46 1021.50 1021.66 1021.70 1021.86 1021.90
1014.82 1015.14 1015.42 1015.74 1015.90 1016.10 1016.18 1016.34 1016.62 1016.90 1017.14 1017.22 1017.34 1017.54 1017.78 1017.86 1018.18 1018.26 1018.42 1018.62 1018.86 1018.94 1019.14 1019.26 1019.50 1019.66 1019.86 1020.02 1020.18 1020.50 1020.70 1020.86 1021.10 1020.82 1021.02 1021.30 1021.22 1021.42 1021.38 1021.34 1021.50 1021.70
1014.50 1014.70 1014.94 1015.18 1015.38 1015.70 1015.86 1016.18 1016.42 1016.66 1016.82 1017.14 1017.26 1017.22 1017.42 1017.62 1017.86 1018.14 1018.30 1018.50 1018.70 1018.86 1018.90 1019.06 1019.26 1019.42 1019.62 1019.82 1020.02 1020.30 1020.38 1020.54 1020.54 1020.62 1020.90 1020.94 1020.98 1021.06 1021.22 1021.26 1021.38 1021.46
1014.10 1014.38 1014.54 1014.78 1014.98 1015.26 1015.58 1015.94 1016.18 1016.38 1016.58 1016.66 1016.82 1017.02 1017.34 1017.58 1017.82 1017.98 1018.14 1018.34 1018.50 1018.70 1018.78 1018.98 1019.06 1019.26 1019.42 1019.66 1019.86 1020.22 1020.26 1020.34 1020.34 1020.50 1020.78 1020.90 1020.78 1020.90 1020.98 1021.10 1021.38 1021.54
1013.62 1013.86 1014.14 1014.42 1014.70 1015.02 1015.38 1015.62 1015.82 1015.98 1016.22 1016.46 1016.62 1016.70 1016.98 1017.22 1017.54 1017.74 1017.90 1018.14 1018.22 1018.42 1018.58 1018.66 1018.90 1018.98 1019.14 1019.42 1019.66 1019.94 1020.06 1020.14 1020.06 1020.30 1020.62 1020.74 1020.62 1020.46 1020.62 1020.86 1021.14 1021.34
1013.26 1013.58 1013.90 1014.06 1014.38 1014.62 1014.98 1015.22 1015.42 1015.62 1015.78 1015.90 1016.18 1016.54 1016.66 1017.02 1017.30 1017.46 1017.62 1017.82 1017.98 1018.14 1018.34 1018.54 1018.74 1018.90 1018.90 1019.14 1019.46 1019.78 1019.90 1020.02 1019.98 1020.14 1020.42 1020.42 1020.42 1020.50 1020.38 1020.62 1020.86 1020.98
1012.78 1013.02 1013.42 1013.74 1014.14 1014.34 1014.70 1014.90 1015.14 1015.34 1015.46 1015.74 1016.10 1016.18 1016.34 1016.62 1016.90 1017.06 1017.26 1017.50 1017.78 1017.98 1018.14 1018.26 1018.46 1018.66 1018.74 1018.90 1019.22 1019.50 1019.74 1019.70 1019.90 1020.02 1020.22 1020.26 1020.18 1020.38 1020.34 1020.34 1020.50 1020.74
1012.30 1012.70 1013.02 1013.38 1013.74 1013.94 1014.22 1014.42 1014.70 1014.94 1015.10 1015.54 1015.74 1015.86 1015.98 1016.22 1016.46 1016.66 1016.94 1017.18 1017.50 1017.70 1017.90 1018.06 1018.22 1018.38 1018.46 1018.66 1018.90 1019.18 1019.42 1019.46 1019.46 1019.66 1019.86 1019.98 1020.06 1020.02 1020.06 1020.06 1020.30 1020.42
1011.94 1012.18 1012.54 1012.90 1013.34 1013.46 1013.74 1013.90 1014.10 1014.46 1014.70 1015.10 1015.34 1015.46 1015.78 1015.90 1016.06 1016.34 1016.62 1016.98 1017.26 1017.50 1017.66 1017.82 1017.94 1018.10 1018.22 1018.34 1018.58 1018.78 1019.02 1019.18 1019.22 1019.34 1019.42 1019.46 1019.54 1019.58 1019.66 1019.82 1019.98 1020.10
1011.58 1011.78 1012.14 1012.46 1012.74 1012.94 1013.22 1013.42 1013.70 1013.98 1014.26 1014.66 1014.94 1015.22 1015.34 1015.58 1015.90 1016.02 1016.38 1016.66 1016.98 1017.18 1017.34 1017.50 1017.58 1017.74 1017.98 1018.06 1018.14 1018.26 1018.50 1018.70 1018.86 1018.98 1019.06 1019.06 1019.10 1019.18 1019.26 1019.42 1019.54 1019.66
1011.14 1011.42 1011.70 1011.98 1012.22 1012.46 1012.74 1012.98 1013.22 1013.58 1013.86 1014.18 1014.42 1014.86 1015.06 1015.18 1015.54 1015.78 1016.02 1016.30 1016.46 1016.66 1016.82 1017.02 1017.14 1017.34 1017.58 1017.70 1017.78 1017.90 1018.10 1018.30 1018.42 1018.54 1018.62 1018.66 1018.70 1018.78 1018.90 1018.98 1019.14 1019.18
1010.62 1010.86 1011.10 1011.46 1011.78 1012.02 1012.22 1012.58 1012.90 1013.10 1013.42 1013.78 1013.94 1014.30 1014.66 1014.94 1015.10 1015.42 1015.54 1015.82 1016.02 1016.22 1016.42 1016.58 1016.78 1016.98 1017.18 1017.38 1017.50 1017.62 1017.82 1018.02 1018.14 1018.22 1018.26 1018.30 1018.30 1018.38 1018.42 1018.50 1018.58 1018.66
1009.94 1010.26 1010.70 1010.94 1011.22 1011.62 1011.98 1012.22 1012.50 1012.78 1013.06 1013.26 1013.58 1013.98 1014.26 1014.46 1014.70 1015.02 1015.14 1015.34 1015.58 1015.78 1015.90 1016.10 1016.38 1016.62 1016.78 1016.98 1017.14 1017.30 1017.50 1017.66 1017.78 1017.90 1017.94 1017.98 1017.98 1018.02 1018.02 1018.06 1018.10 1018.14
1009.46 1009.86 1010.22 1010.62 1010.98 1011.38 1011.70 1012.02 1012.26 1012.50 1012.74 1013.02 1013.30 1013.54 1013.70 1013.90 1014.06 1014.38 1014.78 1015.06 1015.18 1015.34 1015.54 1015.70 1015.94 1016.14 1016.26 1016.46 1016.82 1017.02 1017.10 1017.30 1017.42 1017.54 1017.62 1017.74 1017.78 1017.74 1017.70 1017.74 1017.74 1017.70
1009.14 1009.50 1009.90 1010.26 1010.78 1011.18 1011.46 1011.74 1012.02 1012.30 1012.54 1012.82 1013.06 1013.22 1013.42 1013.58 1013.82 1014.02 1014.30 1014.62 1014.90 1015.06 1015.18 1015.34 1015.50 1015.50 1015.62 1015.98 1016.18 1016.42 1016.70 1016.86 1017.02 1017.14 1017.22 1017.34 1017.54 1017.66 1017.58 1017.46 1017.38 1017.34
1008.82 1009.26 1009.58 1010.06 1010.34 1010.78 1011.14 1011.50 1011.78 1012.02 1012.34 1012.58 1012.78 1012.98 1013.18 1013.38 1013.62 1013.90 1014.02 1014.10 1014.34 1014.62 1014.86 1014.94 1014.94 1014.90 1015.22 1015.66 1015.98 1016.22 1016.38 1016.54 1016.78 1016.86 1016.86 1017.02 1017.14 1017.34 1017.46 1017.34 1017.14 1017.02
1008.34 1008.86 1009.38 1009.74 1010.10 1010.50 1010.78 1011.10 1011.42 1011.78 1012.06 1012.30 1012.54 1012.78 1012.94 1013.06 1013.42 1013.58 1013.70 1013.78 1013.94 1014.10 1014.30 1014.34 1014.34 1014.34 1014.86 1015.26 1015.62 1015.90 1016.14 1016.22 1016.26 1016.42 1016.46 1016.58 1016.66 1016.82 1016.86 1016.94 1016.98 1016.90
1008.02 1008.58 1009.02 1009.46 1009.78 1010.06 1010.46 1010.86 1011.22 1011.50 1011.78 1012.02 1012.22 1012.26 1012.54 1012.94 1013.06 1013.26 1013.46 1013.50 1013.66 1013.86 1013.90 1013.78 1013.82 1013.86 1014.38 1014.74 1015.10 1015.46 1015.78 1016.02 1015.90 1015.90 1016.06 1016.10 1016.14 1016.30 1016.42 1016.54 1016.62 1016.70
1007.70 1008.22 1008.70 1009.02 1009.34 1009.78 1010.14 1010.54 1010.86 1011.14 1011.22 1011.38 1011.66 1011.98 1012.30 1012.50 1012.70 1012.94 1013.06 1013.26 1013.34 1013.46 1013.54 1013.42 1013.38 1013.38 1013.90 1014.26 1014.66 1015.02 1015.34 1015.74 1015.54 1015.54 1015.54 1015.58 1015.70 1015.78 1015.86 1016.02 1016.14 1016.34
1007.42 1007.82 1008.26 1008.66 1008.98 1009.34 1009.74 1010.14 1010.42 1010.70 1010.98 1011.10 1011.26 1011.58 1011.90 1012.18 1012.30 1012.58 1012.66 1012.78 1012.90 1012.98 1013.18 1013.22 1012.94 1013.02 1013.50 1013.90 1014.26 1014.70 1015.02 1015.46 1015.26 1015.18 1015.18 1015.18 1015.18 1015.18 1015.30 1015.42 1015.50 1015.66
1006.86 1007.38 1007.78 1008.14 1008.54 1008.94 1009.38 1009.74 1010.02 1010.26 1010.58 1010.66 1010.90 1010.98 1011.14 1011.38 1011.66 1011.86 1012.18 1012.38 1012.38 1012.54 1012.74 1012.90 1012.50 1012.70 1013.10 1013.50 1013.90 1014.38 1014.90 1015.22 1014.98 1015.02 1014.98 1014.90 1014.82 1014.78 1014.82 1014.82 1014.90 1015.06
1006.26 1006.78 1007.26 1007.66 1008.02 1008.54 1008.90 1009.22 1009.54 1009.82 1010.02 1010.10 1010.58 1010.70 1010.90 1011.10 1011.22 1011.38 1011.42 1011.66 1011.90 1012.06 1012.38 1012.38 1012.22 1012.26 1012.66 1013.06 1013.54 1014.06 1014.74 1014.66 1014.58 1014.58 1014.62 1014.58 1014.46 1014.34 1014.34 1014.34 1014.34 1014.42
1005.78 1006.18 1006.74 1007.14 1007.54 1007.98 1008.26 1008.54 1008.78 1009.02 1009.38 1009.50 1010.06 1010.34 1010.54 1010.54 1010.62 1010.82 1010.86 1010.98 1011.26 1011.50 1011.62 1011.94 1011.82 1011.78 1012.22 1012.66 1013.14 1013.66 1013.90 1014.02 1014.06 1014.22 1014.22 1014.18 1014.06 1013.90 1013.86 1013.86 1013.78 1013.98
1005.34 1005.74 1006.18 1006.62 1007.02 1007.34 1007.58 1008.02 1008.26 1008.50 1008.66 1008.98 1009.30 1009.62 1009.86 1009.94 1010.14 1010.34 1010.50 1010.50 1010.54 1010.74 1010.94 1011.34 1011.26 1011.30 1011.62 1012.06 1012.54 1012.98 1013.38 1013.38 1013.46 1013.62 1013.86 1013.74 1013.74 1013.66 1013.46 1013.46 1013.46 1013.46
1004.78 1005.34 1005.70 1006.10 1006.54 1006.82 1007.06 1007.34 1007.54 1007.94 1008.22 1008.58 1008.86 1009.06 1009.42 1009.54 1009.66 1009.86 1010.18 1010.14 1010.06 1010.26 1010.42 1010.58 1010.86 1010.82 1011.02 1011.50 1011.94 1012.38 1012.74 1012.78 1012.78 1013.22 1013.38 1013.34 1013.26 1013.30 1013.38 1013.22 1013.10 1013.06
Wind_Speed
13 12 12 12 11 11 11 11 10 10 9 9 9 9 8 7 7 8 8 7 8 8 7 7 7 7 6 7 7 7 6 6 6 5 6 6 6 7 6 6 6 5
15 14 12 11 10 9 9 10 10 10 10 10 9 8 7 7 8 8 8 8 8 8 8 8 8 7 7 6 7 7 6 6 7 5 6 7 7 7 7 7 7 5
15 14 14 14 13 14 15 12 11 10 9 10 9 8 7 8 8 8 8 8 8 8 8 8 8 8 8 7 6 7 7 7 7 7 7 8 7 7 7 7 6 6
16 15 15 16 14 14 13 11 11 9 9 8 10 9 8 7 8 9 8 8 8 8 8 8 9 8 8 8 7 7 8 8 7 7 7 7 7 8 7 6 6 5
17 16 15 14 13 12 12 11 13 11 12 11 10 9 8 8 8 9 8 8 8 8 7 8 8 8 8 7 7 7 8 7 8 7 7 8 8 8 8 7 7 7
15 15 14 14 13 12 12 13 13 13 13 12 11 10 10 10 9 10 9 10 9 9 9 8 8 8 8 8 7 8 8 8 7 8 8 8 8 8 7 7 8 7
17 15 16 14 14 14 14 13 12 12 12 11 10 10 10 10 11 10 10 10 10 9 10 9 8 8 7 7 8 8 8 9 8 8 9 8 8 9 9 8 8 7
18 16 16 14 15 15 14 13 12 12 11 11 11 11 11 12 12 11 10 11 10 10 10 10 9 9 8 8 8 8 10 8 9 10 10 10 9 9 9 7 8 8
17 16 16 17 17 15 16 15 14 13 12 12 12 11 11 11 11 12 10 10 10 10 10 10 10 9 9 9 8 9 9 9 9 10 10 11 11 10 9 8 8 9
17 16 18 18 18 16 17 17 14 13 12 13 13 11 11 11 11 11 10 10 10 10 10 10 10 10 9 10 10 10 10 10 10 9 9 10 10 10 9 8 9 9
18 18 18 19 18 16 17 17 16 14 12 14 13 13 12 11 10 11 10 10 10 11 11 11 11 11 11 11 10 10 11 10 10 10 10 11 10 10 8 8 9 9
19 18 18 19 19 17 18 17 15 14 14 13 14 14 13 12 12 11 11 11 11 12 12 11 11 11 11 11 11 11 10 10 10 10 11 11 11 10 9 9 9 10
19 18 17 18 17 16 15 15 15 15 15 14 14 14 14 13 12 12 11 12 12 12 12 12 11 11 11 11 11 11 10 10 11 11 11 10 10 11 10 10 10 10
18 17 16 16 15 14 14 14 14 14 14 13 13 14 14 14 13 13 12 11 12 12 12 11 11 11 11 11 11 11 10 11 11 11 11 11 11 10 11 11 11 11
16 15 14 14 14 14 14 14 14 14 13 13 12 13 12 13 14 13 13 13 13 13 13 12 11 11 10 11 11 12 11 12 11 12 12 11 11 11 11 11 11 10
15 13 14 14 14 14 14 13 13 13 13 13 13 13 12 12 13 13 13 14 14 13 13 11 11 10 11 15 13 10 11 10 10 11 12 11 11 10 11 11 11 11
13 13 13 14 14 13 13 14 14 12 13 13 13 13 14 12 12 14 14 13 14 14 14 12 11 11 14 15 16 15 11 10 11 11 11 11 11 11 11 11 10 11
15 14 14 14 14 14 14 14 13 13 13 13 13 14 13 13 13 14 14 14 12 13 14 13 13 13 15 16 17 17 15 12 11 11 11 11 11 12 10 10 10 10
14 15 15 14 14 14 13 12 14 14 14 14 15 14 13 13 14 14 14 14 13 13 14 14 13 13 16 18 18 18 18 15 12 12 12 12 11 11 11 11 10 10
15 15 15 15 14 14 13 14 14 15 15 14 13 13 13 13 14 15 14 13 14 14 13 13 14 12 17 18 18 18 18 16 14 14 13 13 13 12 11 11 11 11
15 15 15 15 14 15 14 14 15 14 14 14 13 14 13 14 14 15 14 14 14 14 13 13 13 14 15 18 18 18 18 15 12 13 13 13 13 13 13 13 12 11
17 16 15 15 15 15 15 15 15 15 15 14 13 13 12 12 13 13 14 14 14 15 14 14 14 15 15 16 18 17 16 11 11 12 13 14 13 13 13 12 12 12
17 17 16 16 16 16 16 16 15 15 14 12 13 13 13 13 13 14 13 14 15 14 15 14 14 13 16 16 16 16 13 10 11 11 12 14 14 13 13 13 12 12
16 17 16 16 16 17 17 15 14 13 14 12 13 14 14 14 13 13 13 13 15 15 15 15 15 13 16 17 17 18 15 11 10 11 12 13 13 13 12 11 13 15
16 16 16 16 16 16 15 15 15 14 13 12 13 13 13 12 12 12 13 13 14 15 15 16 15 13 17 18 19 19 16 11 11 11 12 13 12 12 12 11 12 12
15 15 15 15 15 15 14 14 13 13 14 14 13 12 12 12 12 12 13 12 12 14 13 15 15 14 13 20 19 20 21 13 11 11 13 13 12 12 11 11 11 11
Wind_Direction
193 194 196 196 199 199 197 195 198 198 199 202 207 207 205 200 194 198 200 204 204 208 206 205 203 205 206 207 219 229 233 235 241 237 239 240 245 246 245 235 222 226
195 194 194 196 196 193 195 195 195 197 197 199 206 202 198 194 199 200 203 204 203 209 207 205 205 206 208 208 206 223 230 232 235 230 238 234 240 244 246 245 244 229
195 195 195 197 200 200 203 200 199 198 201 203 200 199 199 199 202 201 205 205 207 209 205 206 206 204 207 208 202 217 229 229 233 229 232 240 239 240 245 246 241 229
197 198 199 203 204 201 200 196 194 195 201 198 201 202 201 199 198 202 204 203 208 209 207 206 208 207 205 207 205 222 232 233 234 234 233 237 239 242 242 238 240 237
196 197 200 202 203 200 194 196 199 196 201 205 202 196 191 192 197 207 206 205 209 212 209 208 206 208 202 204 205 226 233 237 232 231 235 239 239 238 240 234 229 229
196 197 196 197 197 193 193 199 200 199 200 202 198 196 198 196 202 208 208 210 212 215 217 214 210 211 208 205 203 223 233 236 233 231 234 236 239 237 237 232 226 223
193 193 196 197 198 197 200 202 201 200 201 204 194 198 196 198 202 206 208 211 215 215 216 213 210 210 207 204 202 217 229 235 238 233 235 237 236 240 236 234 231 226
195 195 197 199 201 202 201 200 200 199 198 195 197 197 196 202 203 206 207 209 213 214 213 213 210 207 209 206 209 211 224 229 233 232 234 238 239 238 233 227 232 232
192 194 193 197 199 201 203 203 202 201 197 198 205 205 201 206 206 208 206 204 208 212 211 214 212 212 211 212 213 213 215 220 222 225 229 232 232 233 230 224 225 230
190 193 195 196 200 203 205 205 204 201 197 201 204 208 204 203 207 208 204 200 204 208 210 213 212 212 211 212 214 215 217 219 221 220 224 227 232 233 227 221 226 231
195 194 195 197 200 203 204 203 203 201 197 200 203 208 209 203 203 205 205 202 206 210 212 212 212 211 210 215 217 217 218 222 223 224 226 230 234 235 232 230 232 236
196 197 198 198 200 202 203 202 201 201 198 198 202 206 207 207 203 203 204 205 208 211 212 212 210 210 211 215 219 218 218 221 224 226 230 232 234 235 234 231 235 239
195 196 196 197 198 200 200 200 201 201 201 201 200 205 206 208 207 204 203 206 209 211 214 213 210 210 212 214 218 220 219 220 225 228 232 233 235 235 235 233 234 236
195 193 193 195 195 195 196 198 199 200 202 202 200 203 208 210 209 205 205 207 211 213 214 213 210 210 210 212 214 217 218 222 224 229 232 234 236 235 236 237 235 235
188 189 189 188 188 188 192 194 196 197 197 198 198 202 207 210 211 210 209 210 213 215 215 213 214 215 213 210 211 214 219 224 225 227 230 234 237 237 236 235 237 239
181 183 184 183 184 187 190 191 194 194 194 196 198 202 205 209 211 212 212 212 213 213 214 214 216 217 208 201 204 213 216 222 225 228 230 233 235 238 239 237 238 240
177 182 181 184 189 191 191 193 196 196 199 201 205 205 208 207 206 210 213 216 215 215 215 215 217 217 199 192 201 209 218 224 225 228 228 230 232 235 239 240 241 240
184 185 187 189 188 191 191 193 195 197 200 201 203 207 206 207 208 211 215 218 218 219 219 218 220 213 191 192 198 204 209 222 230 233 234 232 233 234 238 240 241 243
179 183 186 187 190 190 190 189 194 199 201 202 206 207 206 207 211 212 215 215 218 220 222 221 225 206 191 193 197 199 203 212 230 236 236 236 235 233 235 235 237 240
179 183 186 189 186 187 189 192 196 201 203 204 207 205 207 209 210 214 215 214 217 220 223 226 228 210 193 195 196 197 199 202 226 231 236 238 237 235 233 233 232 235
182 184 188 187 186 187 190 195 197 200 201 204 206 206 205 207 211 214 216 216 217 220 224 227 230 217 196 196 197 197 197 199 221 228 235 238 238 236 234 234 235 234
184 185 186 186 187 189 192 196 197 197 199 200 205 210 211 211 213 216 217 216 218 220 224 230 233 212 198 197 197 197 190 200 217 224 230 237 239 237 236 235 234 234
187 187 187 188 188 190 195 197 197 198 200 199 204 209 211 212 213 214 216 219 218 218 221 227 234 211 196 197 196 190 183 211 214 223 229 234 239 239 238 236 234 233
188 187 187 188 189 193 195 197 198 201 201 198 204 208 213 215 214 217 218 219 219 219 217 223 231 213 190 195 193 185 192 207 214 219 230 233 239 238 237 237 235 227
186 188 189 188 191 193 194 196 199 201 201 199 206 210 215 216 216 218 218 219 221 221 213 219 230 220 189 193 192 189 194 211 214 222 227 232 234 239 235 236 240 229
186 189 191 192 192 193 196 199 198 200 202 200 205 208 212 216 214 216 218 220 220 220 219 218 226 231 197 192 191 192 193 203 215 218 228 229 232 235 240 237 235 239